This is the latest recevied weather packets stored in our database for station/object KQ4DLB-13. If no packets are shown the sender has not sent any weather packets the latest 10 day(s).
| Time | Temp. | Humidity | Pressure | Rain* | Wind** | Luminosity | Snow |
|---|---|---|---|---|---|---|---|
| 1777820402 | 15° C | 46% | 997.6 hPa | 0 mm | - | 686 W/m² | - |
| 1777820102 | 15° C | 44% | 997.5 hPa | 0 mm | - | 670 W/m² | - |
| 1777819802 | 14.44° C | 46% | 997.5 hPa | 0 mm | - | 655 W/m² | - |
| 1777819502 | 14.44° C | 44% | 997.4 hPa | 0 mm | - | 639 W/m² | - |
| 1777819202 | 13.89° C | 46% | 997.2 hPa | 0 mm | - | 625 W/m² | - |
| 1777818902 | 13.89° C | 51% | 996.9 hPa | 0 mm | - | 474 W/m² | - |
| 1777818602 | 13.89° C | 56% | 996.8 hPa | 0 mm | - | - | - |
| 1777818303 | 13.89° C | 58% | 996.9 hPa | 0 mm | - | 284 W/m² | - |
| 1777818003 | 13.33° C | 59% | 997.1 hPa | 0 mm | - | 556 W/m² | - |
| 1777817702 | 13.33° C | 58% | 997.2 hPa | 0 mm | - | 538 W/m² | - |
| 1777817402 | 13.33° C | 60% | 997.2 hPa | 0 mm | - | 518 W/m² | - |
| 1777817102 | 13.33° C | 63% | 997.2 hPa | 0 mm | - | 500 W/m² | - |
| 1777816802 | 12.78° C | 67% | 997.3 hPa | 0 mm | - | 482 W/m² | - |
| 1777816502 | 12.22° C | 71% | 997.5 hPa | 0 mm | - | 462 W/m² | - |
| 1777816202 | 11.67° C | 74% | 997.4 hPa | 0 mm | - | 444 W/m² | - |
| 1777815902 | 11.11° C | 75% | 997.4 hPa | 0 mm | - | 424 W/m² | - |
| 1777815602 | 10° C | 82% | 997.4 hPa | 0 mm | - | 406 W/m² | - |
| 1777815302 | 9.44° C | 89% | 997.5 hPa | 0 mm | - | 389 W/m² | - |
| 1777815002 | 8.33° C | 95% | 997.5 hPa | 0 mm | - | 368 W/m² | - |
| 1777814702 | 7.78° C | 96% | 997.3 hPa | 0 mm | - | 338 W/m² | - |
| 1777814403 | 7.22° C | 96% | 997.1 hPa | 0 mm | - | - | - |
| 1777814102 | 7.22° C | 96% | 997 hPa | 0 mm | - | - | - |
| 1777813802 | 6.67° C | 96% | 997 hPa | 0 mm | - | - | - |
| 1777813502 | 6.11° C | 96% | 997 hPa | 0 mm | - | - | - |
| 1777813202 | 6.11° C | 96% | 997.1 hPa | 0 mm | - | - | - |
* Rain latest hour (hover to see other rain measurements)
** Current wind speed in m/s (hover to see current wind gust speed)